1509282000.8,11144,10.56,70684.8,-8.49,-9.05,-9.01,0,*50
1509282002.04,11145,10.56,70690.5,-8.47,-9.05,-9.01,0,*5F
1509282003.27,11146,10.56,70706.5,-8.47,-9.05,-9.01,0,*5C
1509282004.5,11147,10.56,70714.0,-8.47,-9.01,-9.01,0,*59
1509282005.73,11148,10.56,70720.5,-8.47,-9.05,-9.05,0,*56
1509282007.01,11149,10.56,70728.5,-8.47,-9.15,-9.15,0,*57
1509282008.3,11150,10.56,70736.3,-8.47,-9.15,-9.15,0,*5F
1509282009.5,11151,10.56,70748.5,-8.49,-9.05,-9.01,0,*54
1509282010.73,11152,10.56,70752.8,-8.47,-9.01,-9.05,0,*59
1509282011.94,11153,10.56,70762.0,-8.49,-9.01,-9.01,0,*52
1509282013.15,11154,10.56,70774.5,-8.49,-9.01,-8.93,0,*5F
1509282014.38,11155,10.56,70776.5,-8.47,-9.01,-8.89,0,*5B
1509282015.61,11156,10.56,70770.8,-8.47,-8.93,-8.93,0,*59
1509282016.85,11157,10.56,70766.5,-8.47,-9.01,-8.93,0,*52
1509282018.07,11158,10.56,70762.3,-8.47,-9.05,-8.93,0,*59
1509282019.31,11159,10.56,70750.0,-8.47,-9.05,-9.01,0,*52
1509282020.53,11160,10.56,70754.3,-8.47,-9.05,-9.05,0,*5C
1509282021.82,11161,10.56,70728.5,-8.47,-9.15,-9.15,0,*5D
1509282023.1,11162,10.56,70718.0,-8.47,-9.15,-9.15,0,*5E
1509282024.38,11163,10.56,70722.0,-8.47,-9.15,-9.15,0,*5F
1509282025.66,11164,10.56,70730.0,-8.47,-9.15,-9.15,0,*58
1509282026.94,11165,10.56,70720.3,-8.47,-9.15,-9.11,0,*5D
1509282028.17,11166,10.56,70720.3,-8.45,-9.23,-9.15,0,*5D
1509282029.43,11167,10.56,70704.0,-8.45,-9.15,-9.15,0,*59
1509282030.69,11168,10.56,70688.0,-8.45,-9.15,-9.15,0,*56
1509282031.92,11169,10.56,70670.8,-8.45,-9.23,-9.15,0,*52
1509282033.15,11170,10.56,70694.0,-8.45,-9.23,-9.15,0,*5A
1509282034.35,11171,10.56,70700.0,-8.45,-9.23,-9.23,0,*5E
1509282035.56,11172,10.56,70704.0,-8.45,-9.23,-9.27,0,*59
1509282036.76,11173,10.56,70692.5,-8.45,-9.23,-9.23,0,*5C
1509282037.97,11174,10.56,70684.0,-8.45,-9.27,-9.27,0,*5B
1509282039.19,11175,10.56,70654.5,-8.47,-9.31,-9.31,0,*58
1509282040.44,11176,10.56,70648.5,-8.47,-9.37,-9.31,0,*5D
1509282041.69,11177,10.56,70628.0,-8.47,-9.37,-9.27,0,*5B
1509282042.89,11178,10.56,70608.5,-8.45,-9.23,-9.23,0,*57
1509282044.11,11179,10.56,70614.0,-8.47,-9.31,-9.31,0,*54
1509282045.31,11180,10.56,70628.8,-8.49,-9.31,-9.31,0,*5C
1509282046.53,11181,10.56,70624.8,-8.47,-9.27,-9.27,0,*53
1509282047.73,11182,10.56,70606.8,-8.49,-9.31,-9.27,0,*59
1509282048.96,11183,10.56,70578.5,-8.47,-9.31,-9.19,0,*5B
1509282050.18,11184,10.56,70572.0,-8.47,-9.19,-9.19,0,*56
1509282051.41,11185,10.56,70582.3,-8.47,-9.27,-9.19,0,*5A
1509282052.66,11186,10.56,70648.0,-8.47,-9.15,-9.19,0,*58
1509282053.89,11187,10.56,70670.8,-8.49,-9.15,-9.19,0,*57
1509282055.14,11188,10.56,70676.5,-8.47,-9.19,-9.15,0,*56
1509282056.4,11189,10.56,70680.0,-8.47,-9.15,-9.01,0,*5E
1509282057.61,11190,10.56,70712.5,-8.49,-9.05,-9.01,0,*59
1509282058.82,11191,10.56,70722.5,-8.49,-9.01,-9.01,0,*5C
1509282060.05,11192,10.56,70732.0,-8.47,-9.01,-9.01,0,*51
1509282061.28,11193,10.56,70740.5,-8.47,-9.01,-8.93,0,*5A
1509282062.52,11194,10.56,70742.0,-8.47,-9.01,-8.89,0,*56
1509282063.75,11195,10.56,70748.3,-8.47,-8.93,-8.89,0,*5D
1509282064.99,11196,10.56,70758.3,-8.47,-8.89,-8.89,0,*55
1509282066.22,11197,10.56,70764.5,-8.47,-8.89,-8.89,0,*54
1509282067.47,11198,10.56,70762.8,-8.47,-8.89,-8.81,0,*53
1509282068.7,11199,10.56,70758.5,-8.47,-8.89,-8.93,0,*51
1509282069.94,11200,10.56,70730.0,-8.47,-9.01,-9.01,0,*59
1509282071.14,11201,10.5,70712.8,-8.45,-8.97,-8.97,0,*5A
1509282072.35,11202,10.56,70724.3,-8.45,-8.97,-8.97,0,*59
1509282073.55,11203,10.56,70710.5,-8.45,-8.97,-8.89,0,*57
1509282074.76,11204,10.56,70712.5,-8.45,-8.97,-8.89,0,*50
1509282075.97,11205,10.56,70708.0,-8.45,-8.97,-8.89,0,*51
1509282077.17,11206,10.56,70670.3,-8.45,-8.97,-8.97,0,*5D
1509282078.38,11207,10.56,70662.5,-8.45,-8.97,-8.89,0,*53
1509282079.58,11208,10.56,70660.5,-8.45,-8.97,-8.97,0,*53
1509282080.79,11209,10.5,70658.8,-8.45,-8.97,-8.97,0,*52
1509282082.0,11210,10.56,70680.8,-8.45,-9.01,-8.97,0,*54
1509282083.2,11211,10.56,70670.5,-8.45,-8.97,-8.97,0,*5B
1509282084.42,11212,10.56,70614.5,-8.43,-8.97,-8.89,0,*51
1509282085.64,11213,10.56,70604.3,-8.45,-8.89,-8.89,0,*59
1509282086.85,11214,10.56,70612.0,-8.45,-8.89,-8.89,0,*5E
1509282088.08,11215,10.56,70626.5,-8.43,-8.85,-8.85,0,*59
1509282089.3,11216,10.56,70650.8,-8.43,-8.97,-8.89,0,*55
1509282090.53,11217,10.56,70652.3,-8.43,-8.97,-9.01,0,*55
1509282091.75,11218,10.56,70642.3,-8.43,-8.97,-8.97,0,*54
1509282092.97,11219,10.56,70652.5,-8.43,-8.97,-8.97,0,*55
1509282094.19,11220,10.56,70654.3,-8.43,-8.97,-8.97,0,*5F
1509282095.39,11221,10.56,70650.8,-8.41,-8.97,-8.97,0,*5C
1509282096.64,11222,10.56,70680.5,-8.43,-9.11,-8.97,0,*52
1509282097.87,11223,10.5,70670.0,-8.43,-9.01,-8.97,0,*52
1509282099.09,11224,10.56,70676.3,-8.43,-8.97,-8.97,0,*5B
1509282100.31,11225,10.56,70660.8,-8.43,-9.01,-8.97,0,*54
1509282101.54,11226,10.56,70668.3,-8.43,-8.97,-9.01,0,*57
1509282102.76,11227,10.56,70654.8,-8.43,-9.01,-8.97,0,*56
1509282103.97,11228,10.56,70660.0,-8.41,-8.93,-8.93,0,*55
1509282105.17,11229,10.56,70674.0,-8.41,-8.97,-8.93,0,*50
1509282106.39,11230,10.56,70676.3,-8.41,-8.85,-8.81,0,*58
1509282107.62,11231,10.56,70668.5,-8.43,-8.89,-8.89,0,*5F
1509282108.84,11232,10.56,70658.8,-8.41,-8.85,-8.81,0,*5A
1509282110.07,11233,10.56,70630.0,-8.43,-8.85,-8.85,0,*5D
1509282111.29,11234,10.56,70644.0,-8.45,-8.85,-8.85,0,*5C
1509282112.52,11235,10.56,70644.3,-8.43,-8.89,-8.89,0,*5B
1509282113.74,11236,10.56,70652.5,-8.43,-8.97,-8.89,0,*57
1509282114.94,11237,10.56,70676.5,-8.41,-8.97,-8.93,0,*5F
1509282116.14,11238,10.56,70708.3,-8.41,-8.93,-8.93,0,*54
1509282117.35,11239,10.56,70712.8,-8.41,-8.93,-8.93,0,*55
1509282118.57,11240,10.56,70722.5,-8.41,-8.93,-8.81,0,*58
1509282119.8,11241,10.56,70732.3,-8.39,-8.93,-8.85,0,*52
1509282121.01,11242,10.56,70696.5,-8.41,-8.93,-8.85,0,*5E
1509282122.23,11243,10.56,70660.8,-8.39,-8.93,-8.93,0,*57
1509282123.44,11244,10.56,70656.3,-8.41,-8.93,-8.97,0,*5B
1509282124.64,11245,10.56,70636.8,-8.41,-8.93,-8.93,0,*5E
1509282125.84,11246,10.56,70594.5,-8.41,-8.97,-8.93,0,*59
1509282127.04,11247,10.56,70524.5,-8.41,-8.97,-8.97,0,*5C
1509282128.23,11248,10.56,70548.8,-8.41,-8.97,-8.97,0,*53
1509282129.43,11249,10.56,70622.0,-8.41,-8.97,-8.97,0,*52
1509282130.65,11250,10.56,70636.3,-8.39,-9.05,-8.93,0,*5B
1509282131.85,11251,10.56,70642.8,-8.41,-8.97,-8.97,0,*5B
1509282133.05,11252,10.56,70666.0,-8.41,-8.97,-8.97,0,*58
1509282134.25,11253,10.56,70650.0,-8.41,-8.97,-8.97,0,*59
1509282135.44,11254,10.56,70626.0,-8.41,-8.97,-9.05,0,*54
1509282136.67,11255,10.56,70640.3,-8.39,-9.05,-9.05,0,*50
1509282137.87,11256,10.56,70634.3,-8.41,-9.05,-9.05,0,*5C
1509282139.07,11257,10.56,70626.0,-8.41,-8.97,-8.93,0,*59
1509282140.27,11258,10.56,70652.0,-8.41,-8.97,-8.93,0,*56
1509282141.46,11259,10.56,70656.8,-8.41,-8.97,-8.93,0,*57
1509282142.68,11260,10.56,70660.5,-8.39,-8.97,-8.97,0,*56
1509282143.88,11261,10.56,70658.8,-8.41,-8.97,-9.05,0,*52
1509282145.1,11262,10.56,70652.3,-8.39,-8.97,-8.97,0,*54
1509282146.33,11263,10.56,70644.8,-8.39,-9.05,-8.97,0,*5F
1509282147.55,11264,10.56,70640.5,-8.39,-9.05,-8.97,0,*58
1509282148.75,11265,10.56,70660.0,-8.41,-8.97,-9.05,0,*56
1509282149.98,11266,10.56,70656.8,-8.39,-9.05,-9.05,0,*50
1509282151.2,11267,10.56,70638.0,-8.39,-8.97,-8.97,0,*51
1509282152.4,11268,10.56,70654.3,-8.41,-9.05,-8.97,0,*5B
1509282153.6,11269,10.56,70646.5,-8.41,-8.93,-8.93,0,*50
1509282154.83,11270,10.56,70656.0,-8.39,-8.93,-9.05,0,*59
1509282156.05,11271,10.56,70646.8,-8.39,-8.97,-8.97,0,*56
1509282157.27,11272,10.56,70640.3,-8.39,-8.97,-8.97,0,*55
1509282158.47,11273,10.56,70638.0,-8.41,-8.97,-8.97,0,*5B
1509282159.69,11274,10.56,70640.3,-8.39,-8.93,-8.93,0,*53
1509282160.9,11275,10.56,70650.3,-8.41,-8.93,-8.93,0,*5D
1509282162.14,11276,10.56,70654.0,-8.39,-8.85,-8.81,0,*55
1509282163.37,11277,10.56,70662.8,-8.39,-8.93,-8.93,0,*50
1509282164.57,11278,10.56,70662.3,-8.41,-8.97,-8.93,0,*54
1509282165.77,11279,10.56,70660.0,-8.41,-8.93,-8.93,0,*51
1509282166.99,11280,10.56,70668.3,-8.39,-8.97,-8.93,0,*5C
1509282168.22,11281,10.56,70676.8,-8.39,-8.93,-8.93,0,*59
1509282169.44,11282,10.56,70676.0,-8.39,-8.97,-8.93,0,*5E
1509282170.65,11283,10.56,70676.3,-8.37,-8.93,-8.89,0,*5E
1509282171.87,11284,10.56,70678.5,-8.39,-8.97,-8.93,0,*58
1509282173.08,11285,10.56,70672.0,-8.41,-8.93,-8.93,0,*52
1509282174.3,11286,10.56,70660.5,-8.39,-8.85,-8.93,0,*59
1509282175.52,11287,10.56,70650.0,-8.39,-8.97,-8.93,0,*5B
1509282176.75,11288,10.56,70642.8,-8.39,-8.97,-8.97,0,*50
1509282177.97,11289,10.56,70648.5,-8.39,-9.05,-8.97,0,*5B
1509282179.22,11290,10.56,70644.5,-8.39,-9.11,-9.05,0,*5C
1509282180.5,11291,10.56,70650.8,-8.39,-9.11,-9.11,0,*58
1509282181.73,11292,10.56,70648.3,-8.39,-9.05,-9.05,0,*5B
1509282182.95,11293,10.56,70654.5,-8.39,-9.05,-8.97,0,*50
1509282184.2,11294,10.56,70660.3,-8.39,-9.11,-9.05,0,*58
1509282185.43,11295,10.56,70658.3,-8.39,-9.05,-9.05,0,*5C
1509282186.65,11296,10.56,70658.8,-8.39,-8.97,-8.93,0,*5B
1509282187.85,11297,10.56,70660.0,-8.41,-9.05,-8.97,0,*5B
1509282189.07,11298,10.56,70664.3,-8.39,-9.05,-9.05,0,*51
1509282190.3,11299,10.56,70670.0,-8.39,-9.05,-8.97,0,*5A
1509282191.52,11300,10.56,70670.0,-8.39,-8.97,-8.97,0,*51
1509282192.75,11301,10.56,70664.5,-8.39,-8.93,-8.85,0,*57
1509282193.98,11302,10.56,70674.5,-8.39,-8.85,-8.71,0,*58
1509282195.22,11303,10.56,70678.0,-8.39,-8.85,-8.81,0,*56
1509282196.45,11304,10.56,70686.3,-8.39,-8.85,-8.85,0,*55
1509282197.68,11305,10.56,70694.5,-8.39,-8.85,-8.85,0,*54
1509282198.91,11306,10.56,70698.0,-8.39,-8.93,-8.93,0,*57
1509282200.11,11307,10.56,70724.0,-8.41,-8.97,-8.97,0,*59
1509282201.33,11308,10.56,70720.0,-8.39,-8.97,-9.05,0,*53
1509282202.56,11309,10.56,70720.5,-8.39,-9.05,-8.97,0,*52
1509282203.83,11310,10.56,70714.8,-8.39,-9.11,-9.11,0,*50
1509282205.09,11311,10.56,70700.3,-8.39,-9.05,-9.11,0,*54
1509282206.29,11312,10.5,70686.3,-8.37,-9.05,-9.05,0,*5C
1509282207.54,11313,10.56,70684.3,-8.39,-9.19,-9.11,0,*5B
1509282208.77,11314,10.56,70690.0,-8.37,-9.15,-9.01,0,*5F
1509282210.0,11315,10.56,70692.3,-8.39,-9.05,-9.05,0,*55
1509282211.22,11316,10.56,70696.8,-8.39,-9.05,-8.93,0,*58
1509282212.44,11317,10.56,70696.0,-8.39,-8.97,-8.93,0,*53
1509282213.64,11318,10.56,70686.8,-8.41,-8.97,-8.93,0,*53
1509282214.86,11319,10.56,70678.5,-8.39,-8.97,-8.97,0,*59
1509282216.09,11320,10.56,70660.3,-8.39,-9.05,-9.05,0,*53
1509282217.3,11321,10.56,70646.5,-8.37,-9.01,-9.01,0,*5C
1509282218.51,11322,10.56,70650.5,-8.37,-9.01,-9.01,0,*5F
1509282219.73,11323,10.56,70602.8,-8.39,-9.05,-9.05,0,*50
1509282220.96,11324,10.56,70640.8,-8.39,-9.05,-9.05,0,*57
1509282222.18,11325,10.56,70652.5,-8.39,-8.93,-8.93,0,*56
1509282223.41,11326,10.56,70626.5,-8.39,-9.05,-8.97,0,*5F
1509282224.6,11327,10.56,70628.8,-8.41,-8.97,-8.97,0,*5B
1509282225.83,11328,10.56,70630.3,-8.39,-8.97,-8.97,0,*5B
1509282227.05,11329,10.5,70638.8,-8.39,-8.93,-8.97,0,*5E
1509282228.28,11330,10.56,70644.5,-8.39,-8.93,-8.97,0,*56
1509282229.5,11331,10.56,70650.8,-8.39,-8.97,-8.97,0,*53
1509282230.72,11332,10.56,70652.8,-8.39,-8.97,-8.93,0,*54
1509282231.94,11333,10.56,70650.3,-8.39,-8.97,-8.93,0,*55
1509282233.17,11334,10.56,70654.5,-8.39,-9.05,-9.05,0,*56
1509282234.39,11335,10.56,70656.8,-8.39,-9.05,-8.97,0,*5D
1509282235.59,11336,10.56,70670.8,-8.41,-9.05,-8.97,0,*51
1509282236.81,11337,10.56,70662.3,-8.39,-8.97,-8.93,0,*51
1509282238.04,11338,10.56,70654.0,-8.39,-8.97,-8.93,0,*5E
1509282239.26,11339,10.56,70664.8,-8.39,-8.97,-8.93,0,*5F
1509282240.48,11340,10.56,70668.8,-8.39,-8.97,-8.93,0,*51
1509282241.7,11341,10.56,70674.3,-8.39,-8.97,-8.93,0,*50
1509282242.93,11342,10.56,70696.0,-8.39,-8.93,-8.85,0,*50
1509282244.16,11343,10.56,70710.3,-8.39,-8.93,-8.93,0,*56
1509282245.39,11344,10.56,70680.0,-8.39,-8.93,-8.93,0,*51
1509282246.61,11345,10.56,70628.0,-8.39,-8.93,-8.93,0,*50
1509282247.82,11346,10.56,70576.5,-8.37,-8.93,-8.93,0,*5D
1509282249.02,11347,10.56,70620.5,-8.37,-9.01,-8.93,0,*56
1509282250.23,11348,10.56,70608.8,-8.37,-9.01,-8.93,0,*59
1509282251.45,11349,10.5,70590.8,-8.39,-8.97,-8.93,0,*58
1509282252.67,11350,10.5,70576.0,-8.39,-9.05,-8.93,0,*5A
1509282253.89,11351,10.56,70596.3,-8.39,-8.97,-8.97,0,*55
1509282255.14,11352,10.56,70622.5,-8.39,-9.11,-8.97,0,*59
1509282256.37,11353,10.56,70636.0,-8.39,-9.05,-9.05,0,*57
1509282257.6,11354,10.56,70638.5,-8.39,-9.05,-9.05,0,*50
1509282258.8,11355,10.56,70628.8,-8.37,-8.93,-9.05,0,*51
1509282260.03,11356,10.56,70616.0,-8.35,-9.01,-9.01,0,*5E
1509282261.24,11357,10.56,70608.5,-8.37,-8.93,-9.01,0,*57
1509282262.45,11358,10.5,70620.8,-8.37,-8.89,-8.93,0,*59
1509282263.65,11359,10.56,70636.0,-8.37,-9.01,-8.89,0,*52
1509282264.86,11360,10.56,70642.5,-8.37,-8.93,-8.89,0,*52
1509282266.07,11361,10.56,70638.8,-8.37,-8.93,-8.89,0,*53
1509282267.27,11362,10.56,70658.0,-8.37,-8.89,-8.93,0,*50
1509282268.48,11363,10.56,70670.0,-8.37,-8.93,-8.89,0,*51
1509282269.69,11364,10.56,70656.0,-8.37,-8.93,-8.89,0,*56
1509282270.89,11365,10.56,70654.0,-8.37,-8.93,-8.93,0,*5C
1509282272.1,11366,10.56,70640.8,-8.37,-8.89,-8.89,0,*5F
1509282273.3,11367,10.56,70644.3,-8.37,-8.89,-8.93,0,*55
1509282274.53,11368,10.56,70648.5,-8.35,-8.89,-8.89,0,*53
1509282275.76,11369,10.56,70656.0,-8.37,-8.93,-8.81,0,*53
1509282276.96,11370,10.56,70654.8,-8.37,-8.93,-8.89,0,*53
1509282278.2,11371,10.56,70658.0,-8.35,-8.93,-8.89,0,*50
1509282279.4,11372,10.56,70648.5,-8.37,-8.93,-8.93,0,*5A
1509282280.61,11373,10.56,70648.0,-8.37,-8.93,-8.89,0,*50
1509282281.81,11374,10.56,70656.8,-8.37,-8.89,-8.93,0,*57
1509282283.02,11375,10.5,70654.3,-8.37,-8.89,-8.89,0,*5D
1509282284.22,11376,10.56,70660.5,-8.37,-8.93,-8.89,0,*55
1509282285.43,11377,10.56,70660.8,-8.37,-8.93,-8.93,0,*5F
1509282286.64,11378,10.56,70666.5,-8.37,-8.89,-8.89,0,*50
1509282287.89,11379,10.56,70668.0,-8.35,-8.89,-8.81,0,*5B
1509282289.11,11380,10.5,70666.0,-8.37,-8.81,-8.89,0,*5F
1509282290.32,11381,10.56,70664.5,-8.37,-8.89,-8.89,0,*56
1509282291.52,11382,10.56,70656.5,-8.37,-8.93,-8.89,0,*5E
1509282292.75,11383,10.56,70660.0,-8.35,-8.89,-8.89,0,*56
1509282293.98,11384,10.56,70656.3,-8.37,-8.89,-8.81,0,*5B
1509282295.2,11385,10.56,70654.0,-8.37,-8.93,-8.81,0,*51
1509282296.45,11386,10.56,70654.5,-8.35,-8.89,-8.81,0,*5B
1509282297.68,11387,10.56,70650.5,-8.35,-8.89,-8.75,0,*51
1509282298.9,11388,10.56,70646.5,-8.35,-8.89,-8.75,0,*5E
1509282300.13,11389,10.56,70650.8,-8.35,-8.89,-8.75,0,*5F
1509282301.39,11390,10.56,70642.0,-8.35,-8.81,-8.81,0,*54
1509282302.6,11391,10.56,70644.0,-8.37,-8.89,-8.89,0,*57
1509282303.85,11392,10.56,70644.8,-8.35,-8.89,-8.81,0,*5E
1509282305.1,11393,10.56,70650.0,-8.35,-8.89,-8.81,0,*5F
1509282306.33,11394,10.56,70650.3,-8.35,-8.89,-8.89,0,*50
1509282307.56,11395,10.56,70648.3,-8.35,-8.89,-8.93,0,*5A
1509282308.79,11396,10.56,70656.5,-8.35,-8.89,-8.93,0,*59
1509282310.02,11397,10.56,70658.0,-8.35,-8.93,-8.93,0,*53
1509282311.22,11398,10.56,70658.0,-8.37,-8.93,-8.93,0,*5E
1509282312.46,11399,10.56,70656.0,-8.35,-8.93,-8.89,0,*56
1509282313.69,11400,10.56,70656.0,-8.35,-8.93,-8.93,0,*5A
1509282314.92,11401,10.56,70662.0,-8.35,-8.93,-8.89,0,*50
1509282316.15,11402,10.56,70658.8,-8.35,-8.93,-8.89,0,*53
1509282317.38,11403,10.56,70664.0,-8.35,-8.93,-8.93,0,*59
1509282318.59,11404,10.56,70662.8,-8.37,-8.93,-8.89,0,*57
1509282319.79,11405,10.5,70654.0,-8.37,-8.93,-8.93,0,*5D
1509282321.0,11406,10.56,70652.8,-8.37,-8.93,-8.89,0,*55
1509282322.23,11407,10.56,70648.3,-8.35,-8.93,-8.93,0,*5D
1509282323.46,11408,10.56,70652.8,-8.35,-8.93,-8.93,0,*52
1509282324.69,11409,10.56,70660.0,-8.35,-8.89,-8.93,0,*58
1509282325.92,11410,10.56,70666.0,-8.35,-8.93,-8.89,0,*50
1509282327.15,11411,10.56,70672.3,-8.35,-8.93,-8.93,0,*5A
1509282328.38,11412,10.56,70672.5,-8.35,-8.93,-8.89,0,*52
1509282329.62,11413,10.56,70668.5,-8.35,-8.93,-8.89,0,*53
1509282330.85,11414,10.5,70664.0,-8.35,-8.93,-8.89,0,*54
1509282332.05,11415,10.5,70662.3,-8.37,-8.93,-8.93,0,*5C
1509282333.28,11416,10.56,70668.0,-8.35,-8.93,-8.89,0,*56
1509282334.52,11417,10.56,70672.3,-8.35,-8.89,-8.89,0,*5C
1509282335.75,11418,10.56,70682.3,-8.35,-8.93,-8.89,0,*58
1509282336.96,11419,10.56,70688.3,-8.37,-9.01,-8.89,0,*51
1509282338.19,11420,10.56,70698.8,-8.35,-8.93,-8.93,0,*58
1509282339.42,11421,10.5,70696.5,-8.35,-9.01,-8.93,0,*53
1509282340.65,11422,10.56,70708.5,-8.35,-9.01,-9.01,0,*5A
1509282341.89,11423,10.56,70706.5,-8.35,-9.01,-9.01,0,*5B
1509282343.12,11424,10.56,70700.5,-8.35,-9.01,-9.01,0,*5C
1509282344.35,11425,10.5,70696.3,-8.35,-9.05,-9.01,0,*59
1509282345.58,11426,10.56,70692.3,-8.35,-9.01,-8.93,0,*54
1509282346.79,11427,10.56,70684.3,-8.37,-9.01,-8.93,0,*57
1509282347.99,11428,10.56,70684.5,-8.37,-8.93,-8.93,0,*52
1509282349.22,11429,10.56,70690.8,-8.35,-8.93,-8.93,0,*51
1509282350.45,11430,10.56,70684.5,-8.35,-8.93,-8.93,0,*59
1509282351.66,11431,10.56,70682.3,-8.37,-8.93,-8.89,0,*51
1509282352.89,11432,10.56,70682.0,-8.35,-9.01,-8.93,0,*51
1509282354.12,11433,10.56,70686.0,-8.35,-9.01,-8.93,0,*50
1509282355.35,11434,10.5,70690.5,-8.35,-9.01,-8.89,0,*5C
1509282356.58,11435,10.56,70692.5,-8.35,-8.93,-8.93,0,*5C
1509282357.82,11436,10.56,70698.3,-8.35,-8.89,-8.89,0,*5F
1509282359.05,11437,10.5,70706.5,-8.35,-8.89,-8.89,0,*5E
1509282360.3,11438,10.56,70718.5,-8.35,-8.93,-8.81,0,*52
1509282361.53,11439,10.56,70732.0,-8.35,-8.89,-8.89,0,*50
1509282362.78,11440,10.56,70742.5,-8.35,-8.93,-8.81,0,*5D
1509282364.0,11441,10.5,70740.8,-8.37,-8.89,-8.81,0,*55
1509282365.24,11442,10.56,70738.8,-8.35,-8.81,-8.75,0,*57
1509282366.48,11443,10.56,70724.5,-8.35,-8.89,-8.89,0,*5D
1509282367.71,11444,10.5,70708.3,-8.35,-8.89,-8.89,0,*5A
1509282368.94,11445,10.56,70696.3,-8.35,-8.89,-8.89,0,*5B
1509282370.19,11446,10.56,70684.0,-8.35,-8.89,-8.81,0,*50
1509282371.44,11447,10.5,70664.8,-8.35,-8.89,-8.81,0,*51
1509282372.69,11448,10.56,70666.3,-8.35,-8.89,-8.81,0,*5E
1509282373.94,11449,10.5,70664.8,-8.35,-8.89,-8.81,0,*5F
1509282375.17,11450,10.56,70672.3,-8.35,-8.89,-8.89,0,*5F
1509282376.37,11451,10.56,70672.8,-8.33,-8.85,-8.75,0,*57
1509282377.56,11452,10.56,70674.8,-8.33,-8.75,-8.75,0,*5B
1509282378.83,11453,10.5,70670.8,-8.35,-8.81,-8.81,0,*5C
1509282380.06,11454,10.5,70674.5,-8.35,-8.89,-8.89,0,*5B
1509282381.29,11455,10.5,70680.8,-8.35,-8.89,-8.93,0,*51
1509282382.52,11456,10.5,70688.0,-8.35,-8.89,-8.89,0,*59
1509282383.72,11457,10.5,70688.8,-8.33,-8.85,-8.75,0,*51
1509282384.95,11458,10.5,70696.0,-8.35,-8.89,-8.93,0,*5C
1509282386.19,11459,10.56,70692.0,-8.35,-8.89,-8.89,0,*56
1509282387.42,11460,10.5,70696.8,-8.35,-8.93,-8.93,0,*5C
1509282388.62,11461,10.5,70702.5,-8.33,-8.89,-8.89,0,*5B
1509282389.83,11462,10.5,70716.3,-8.33,-8.89,-8.97,0,*57
1509282391.03,11463,10.56,70704.0,-8.33,-8.97,-8.89,0,*56
1509282392.26,11464,10.56,70668.0,-8.35,-9.01,-8.93,0,*52
1509282393.47,11465,10.56,70634.0,-8.33,-9.01,-8.89,0,*5E
1509282394.67,11466,10.5,70646.5,-8.33,-9.01,-8.97,0,*52
1509282395.9,11467,10.56,70644.3,-8.35,-9.01,-9.05,0,*5F
1509282397.14,11468,10.5,70580.3,-8.35,-9.01,-9.01,0,*54
1509282398.4,11469,10.56,70550.0,-8.35,-9.15,-9.01,0,*50
1509282399.62,11470,10.5,70520.3,-8.35,-9.05,-9.05,0,*5D
1509282400.9,11471,10.56,70468.3,-8.35,-9.15,-9.15,0,*5C
1509282402.13,11472,10.56,70580.8,-8.35,-9.19,-9.19,0,*5F
1509282403.41,11473,10.56,70542.3,-8.35,-9.15,-9.15,0,*5E
1509282404.69,11474,10.5,70564.0,-8.35,-9.15,-9.15,0,*59
1509282405.97,11475,10.5,70540.5,-8.35,-9.15,-9.15,0,*58
1509282407.2,11476,10.56,70548.8,-8.37,-9.15,-9.19,0,*55
1509282408.48,11477,10.5,70574.3,-8.35,-9.15,-9.15,0,*5A
1509282409.73,11478,10.5,70564.5,-8.37,-9.15,-9.15,0,*57
1509282411.01,11479,10.56,70556.0,-8.35,-9.15,-9.15,0,*54
1509282412.26,11480,10.5,70562.5,-8.35,-9.15,-9.19,0,*5E
1509282413.49,11481,10.5,70516.3,-8.35,-9.05,-9.05,0,*53
1509282414.72,11482,10.56,70562.3,-8.37,-9.15,-9.05,0,*53
1509282416.0,11483,10.5,70606.0,-8.35,-9.15,-9.15,0,*51
1509282417.24,11484,10.5,70602.0,-8.37,-9.15,-9.05,0,*55
1509282418.47,11485,10.5,70602.3,-8.35,-9.05,-9.01,0,*53
1509282419.69,11486,10.56,70622.5,-8.35,-9.05,-9.05,0,*54
1509282420.92,11487,10.56,70628.5,-8.35,-9.01,-9.05,0,*51
1509282422.16,11488,10.5,70636.5,-8.35,-9.01,-9.01,0,*5A
1509282423.39,11489,10.56,70632.5,-8.35,-9.01,-9.01,0,*5B
1509282424.62,11490,10.56,70642.3,-8.35,-9.05,-8.93,0,*5D
1509282425.83,11491,10.56,70644.0,-8.37,-9.05,-9.01,0,*54
1509282427.03,11492,10.56,70642.0,-8.37,-9.01,-8.93,0,*59
1509282428.27,11493,10.56,70650.3,-8.35,-9.01,-8.89,0,*51
1509282429.49,11494,10.5,70644.5,-8.35,-8.93,-8.93,0,*57
1509282430.73,11495,10.56,70646.3,-8.35,-8.89,-8.89,0,*56
1509282431.96,11496,10.5,70646.5,-8.35,-8.93,-8.89,0,*5E
1509282433.21,11497,10.56,70642.8,-8.35,-8.89,-8.81,0,*5C
1509282434.41,11498,10.56,70648.8,-8.37,-8.89,-8.75,0,*5A
1509282435.65,11499,10.5,70650.8,-8.35,-8.81,-8.75,0,*51
1509282436.88,11500,10.56,70652.0,-8.35,-8.89,-8.75,0,*58
1509282438.12,11501,10.56,70662.5,-8.35,-8.81,-8.75,0,*51
1509282439.33,11502,10.56,70662.8,-8.37,-8.81,-8.75,0,*50
1509282440.55,11503,10.56,70666.0,-8.35,-8.75,-8.75,0,*58
1509282441.77,11504,10.5,70658.8,-8.37,-8.81,-8.75,0,*56
1509282442.96,11505,10.56,70674.0,-8.33,-8.75,-8.75,0,*58
1509282444.16,11506,10.5,70674.0,-8.33,-8.75,-8.71,0,*5F
1509282445.35,11507,10.56,70672.3,-8.33,-8.75,-8.75,0,*5A
1509282446.55,11508,10.56,70672.5,-8.33,-8.71,-8.71,0,*55
1509282447.74,11509,10.56,70674.5,-8.29,-8.75,-8.71,0,*5B
1509282448.95,11510,10.56,70676.5,-8.29,-8.71,-8.71,0,*57
1509282450.15,11511,10.5,70684.3,-8.33,-8.71,-8.71,0,*5D
1509282451.34,11512,10.56,70710.5,-8.33,-8.75,-8.75,0,*5E
1509282452.54,11513,10.56,70692.0,-8.29,-8.75,-8.75,0,*54
1509282453.74,11514,10.5,70682.5,-8.33,-8.89,-8.85,0,*54
1509282454.94,11515,10.56,70690.0,-8.33,-8.75,-8.89,0,*5A
1509282456.15,11516,10.56,70692.5,-8.29,-8.89,-8.85,0,*5D
1509282457.37,11517,10.56,70694.8,-8.29,-8.89,-8.85,0,*5C
1509282458.57,11518,10.5,70688.5,-8.33,-8.97,-8.85,0,*57
1509282459.77,11519,10.56,70684.8,-8.33,-8.85,-8.85,0,*55
1509282460.98,11520,10.56,70682.8,-8.29,-8.85,-8.89,0,*58
1509282462.19,11521,10.5,70672.3,-8.33,-8.89,-8.89,0,*5E
1509282463.4,11522,10.56,70684.5,-8.33,-8.89,-8.89,0,*5D
1509282464.6,11523,10.56,70688.8,-8.33,-8.97,-8.89,0,*53
1509282465.8,11524,10.56,70694.5,-8.33,-8.97,-8.85,0,*58
1509282467.01,11525,10.56,70692.5,-8.29,-8.89,-8.89,0,*51
1509282468.22,11526,10.5,70688.0,-8.33,-8.89,-8.89,0,*59
1509282469.42,11527,10.5,70686.0,-8.29,-8.97,-8.97,0,*53
1509282470.62,11528,10.56,70690.3,-8.33,-8.97,-8.85,0,*54
1509282471.82,11529,10.5,70688.0,-8.33,-8.89,-8.75,0,*55
1509282473.02,11530,10.56,70688.5,-8.33,-8.85,-8.75,0,*51
1509282474.22,11531,10.56,70690.3,-8.33,-8.85,-8.75,0,*50
1509282475.42,11532,10.56,70682.3,-8.33,-8.85,-8.71,0,*57
1509282476.62,11533,10.5,70680.0,-8.33,-8.89,-8.75,0,*5E
1509282477.82,11534,10.56,70680.8,-8.29,-8.75,-8.85,0,*5E
1509282479.02,11535,10.5,70678.0,-8.29,-8.75,-8.71,0,*54
1509282480.21,11536,10.56,70678.0,-8.33,-8.75,-8.75,0,*58
1509282481.41,11537,10.56,70680.5,-8.33,-8.71,-8.75,0,*5D
1509282482.61,11538,10.5,70676.0,-8.33,-8.75,-8.71,0,*52
1509282483.81,11539,10.56,70680.3,-8.33,-8.71,-8.71,0,*57
1509282485.01,11540,10.5,70676.8,-8.29,-8.85,-8.71,0,*59
1509282486.2,11541,10.5,70686.0,-8.33,-8.75,-8.75,0,*58
1509282487.4,11542,10.56,70690.3,-8.29,-8.71,-8.75,0,*54
1509282488.6,11543,10.56,70688.8,-8.33,-8.75,-8.71,0,*5E
1509282489.8,11544,10.56,70686.5,-8.33,-8.71,-8.71,0,*5D
1509282490.99,11545,10.56,70692.5,-8.29,-8.75,-8.75,0,*57
1509282492.2,11546,10.5,70692.0,-8.29,-8.71,-8.75,0,*50
1509282493.39,11547,10.5,70700.3,-8.29,-8.75,-8.75,0,*55
1509282494.59,11548,10.56,70702.5,-8.29,-8.75,-8.75,0,*5A
1509282495.78,11549,10.5,70706.0,-8.33,-8.75,-8.75,0,*50
1509282496.98,11550,10.56,70704.8,-8.29,-8.85,-8.71,0,*58
1509282498.18,11551,10.5,70700.5,-8.33,-8.89,-8.75,0,*5A
1509282499.39,11552,10.5,70706.0,-8.29,-8.85,-8.75,0,*5E
1509282500.58,11553,10.56,70712.5,-8.29,-8.75,-8.71,0,*54
1509282501.78,11554,10.5,70714.5,-8.29,-8.75,-8.75,0,*57
1509282502.98,11555,10.56,70718.3,-8.29,-8.75,-8.71,0,*52
1509282504.17,11556,10.56,70720.5,-8.29,-8.75,-8.75,0,*55
1509282505.37,11557,10.56,70722.8,-8.29,-8.75,-8.75,0,*54
1509282506.57,11558,10.56,70728.3,-8.29,-8.75,-8.75,0,*5B